Location: K�ln
(50.9455°N, 6.9544°E)
Time: 08:19:37
(UTC+01:00)

ISS - Pass Details

Date: 13 January 2018
Orbit: 402 x 407 km, 51.6° (Epoch: 24 January)

Event Time Altitude Azimuth Distance (km) Brightness Sun altitude
Exits shadow 05:33:30 18° 125° (SE) 1,061 -1.2 -27.0°
Drops below altitude 10° 05:34:31 10° 121° (ESE) 1,466 -0.3 -26.8°
Sets 05:36:37 0° 117° (ESE) 2,325 1.0 -26.5°
